Year,Month,Day,Hour,Minute,Value (Times are PST for temperature in C)
2016,06,04,00,00,17.40
2016,06,04,00,01,17.40
2016,06,04,00,02,17.40
2016,06,04,00,03,17.40
2016,06,04,00,04,17.40
2016,06,04,00,05,17.40
2016,06,04,00,06,17.30
2016,06,04,00,07,17.30
2016,06,04,00,08,17.30
2016,06,04,00,09,17.30
2016,06,04,00,10,17.30
2016,06,04,00,11,17.30
2016,06,04,00,12,17.30
2016,06,04,00,13,17.30
2016,06,04,00,14,17.30
2016,06,04,00,15,17.30
2016,06,04,00,16,17.20
2016,06,04,00,17,17.20
2016,06,04,00,18,17.20
2016,06,04,00,19,17.20
2016,06,04,00,20,17.20
2016,06,04,00,21,17.10
2016,06,04,00,22,17.10
2016,06,04,00,23,17.10
2016,06,04,00,24,17.10
2016,06,04,00,25,17.10
2016,06,04,00,26,17.10
2016,06,04,00,27,17.10
2016,06,04,00,28,17.10
2016,06,04,00,29,17.10
2016,06,04,00,30,17.00
2016,06,04,00,31,17.00
2016,06,04,00,32,17.00
2016,06,04,00,33,17.00
2016,06,04,00,34,16.90
2016,06,04,00,35,16.90
2016,06,04,00,36,16.90
2016,06,04,00,37,16.90
2016,06,04,00,38,16.90
2016,06,04,00,39,16.90
2016,06,04,00,40,16.90
2016,06,04,00,41,16.90
2016,06,04,00,42,16.90
2016,06,04,00,43,16.90
2016,06,04,00,44,16.90
2016,06,04,00,45,16.90
2016,06,04,00,46,16.90
2016,06,04,00,47,16.90
2016,06,04,00,48,16.90
2016,06,04,00,49,16.90
2016,06,04,00,50,16.80
2016,06,04,00,51,16.80
2016,06,04,00,52,16.80
2016,06,04,00,53,16.80
2016,06,04,00,54,16.80
2016,06,04,00,55,16.80
2016,06,04,00,56,16.80
2016,06,04,00,57,16.80
2016,06,04,00,58,16.70
2016,06,04,00,59,16.70
2016,06,04,01,00,16.70
2016,06,04,01,01,16.70
2016,06,04,01,02,16.70
2016,06,04,01,03,16.70
2016,06,04,01,04,16.70
2016,06,04,01,05,16.70
2016,06,04,01,06,16.70
2016,06,04,01,07,16.70
2016,06,04,01,08,16.70
2016,06,04,01,09,16.70
2016,06,04,01,10,16.60
2016,06,04,01,11,16.60
2016,06,04,01,12,16.60
2016,06,04,01,13,16.60
2016,06,04,01,14,16.60
2016,06,04,01,15,16.60
2016,06,04,01,16,16.60
2016,06,04,01,17,16.60
2016,06,04,01,18,16.50
2016,06,04,01,19,16.50
2016,06,04,01,20,16.50
2016,06,04,01,21,16.50
2016,06,04,01,22,16.50
2016,06,04,01,23,16.50
2016,06,04,01,24,16.50
2016,06,04,01,25,16.50
2016,06,04,01,26,16.50
2016,06,04,01,27,16.50
2016,06,04,01,28,16.50
2016,06,04,01,29,16.50
2016,06,04,01,30,16.50
2016,06,04,01,31,16.50
2016,06,04,01,32,16.50
2016,06,04,01,33,16.50
2016,06,04,01,34,16.50
2016,06,04,01,35,16.60
2016,06,04,01,36,16.60
2016,06,04,01,37,16.60
2016,06,04,01,38,16.50
2016,06,04,01,39,16.50
2016,06,04,01,40,16.60
2016,06,04,01,41,16.50
2016,06,04,01,42,16.50
2016,06,04,01,43,16.50
2016,06,04,01,44,16.50
2016,06,04,01,45,16.60
2016,06,04,01,46,16.60
2016,06,04,01,47,16.60
2016,06,04,01,48,16.60
2016,06,04,01,49,16.60
2016,06,04,01,50,16.60
2016,06,04,01,51,16.60
2016,06,04,01,52,16.60
2016,06,04,01,53,16.60
2016,06,04,01,54,16.60
2016,06,04,01,55,16.60
2016,06,04,01,56,16.60
2016,06,04,01,57,16.60
2016,06,04,01,58,16.60
2016,06,04,01,59,16.60
2016,06,04,02,00,16.60
2016,06,04,02,01,16.60
2016,06,04,02,02,16.60
2016,06,04,02,03,16.60
2016,06,04,02,04,16.70
2016,06,04,02,05,16.60
2016,06,04,02,06,16.70
2016,06,04,02,07,16.70
2016,06,04,02,08,16.70
2016,06,04,02,09,16.70
2016,06,04,02,10,16.70
2016,06,04,02,11,16.70
2016,06,04,02,12,16.70
2016,06,04,02,13,16.70
2016,06,04,02,14,16.70
2016,06,04,02,15,16.70
2016,06,04,02,16,16.80
2016,06,04,02,17,16.80
2016,06,04,02,18,16.80
2016,06,04,02,19,16.80
2016,06,04,02,20,16.90
2016,06,04,02,21,16.90
2016,06,04,02,22,16.90
2016,06,04,02,23,16.90
2016,06,04,02,24,16.90
2016,06,04,02,25,16.90
2016,06,04,02,26,16.90
2016,06,04,02,27,16.90
2016,06,04,02,28,16.90
2016,06,04,02,29,16.90
2016,06,04,02,30,16.90
2016,06,04,02,31,16.90
2016,06,04,02,32,16.90
2016,06,04,02,33,16.90
2016,06,04,02,34,16.90
2016,06,04,02,35,16.90
2016,06,04,02,36,17.00
2016,06,04,02,37,17.00
2016,06,04,02,38,17.00
2016,06,04,02,39,17.00
2016,06,04,02,40,17.00
2016,06,04,02,41,17.00
2016,06,04,02,42,17.00
2016,06,04,02,43,17.00
2016,06,04,02,44,17.00
2016,06,04,02,45,17.00
2016,06,04,02,46,17.00
2016,06,04,02,47,17.00
2016,06,04,02,48,17.10
2016,06,04,02,49,17.10
2016,06,04,02,50,17.10
2016,06,04,02,51,17.10
2016,06,04,02,52,17.10
2016,06,04,02,53,17.10
2016,06,04,02,54,17.10
2016,06,04,02,55,17.10
2016,06,04,02,56,17.10
2016,06,04,02,57,17.10
2016,06,04,02,58,17.10
2016,06,04,02,59,17.10
2016,06,04,03,00,17.10
2016,06,04,03,01,17.10
2016,06,04,03,02,17.20
2016,06,04,03,03,17.20
2016,06,04,03,04,17.20
2016,06,04,03,05,17.20
2016,06,04,03,06,17.20
2016,06,04,03,07,17.20
2016,06,04,03,08,17.20
2016,06,04,03,09,17.20
2016,06,04,03,10,17.20
2016,06,04,03,11,17.20
2016,06,04,03,12,17.20
2016,06,04,03,13,17.20
2016,06,04,03,14,17.20
2016,06,04,03,15,17.20
2016,06,04,03,16,17.20
2016,06,04,03,17,17.20
2016,06,04,03,18,17.20
2016,06,04,03,19,17.10
2016,06,04,03,20,17.20
2016,06,04,03,21,17.10
2016,06,04,03,22,17.10
2016,06,04,03,23,17.10
2016,06,04,03,24,17.10
2016,06,04,03,25,17.10
2016,06,04,03,26,17.10
2016,06,04,03,27,17.10
2016,06,04,03,28,17.10
2016,06,04,03,29,17.00
2016,06,04,03,30,17.00
2016,06,04,03,31,17.00
2016,06,04,03,32,16.90
2016,06,04,03,33,16.90
2016,06,04,03,34,16.90
2016,06,04,03,35,16.90
2016,06,04,03,36,16.90
2016,06,04,03,37,16.90
2016,06,04,03,38,16.90
2016,06,04,03,39,16.90
2016,06,04,03,40,16.90
2016,06,04,03,41,16.90
2016,06,04,03,42,16.90
2016,06,04,03,43,16.90
2016,06,04,03,44,16.90
2016,06,04,03,45,16.80
2016,06,04,03,46,16.80
2016,06,04,03,47,16.80
2016,06,04,03,48,16.80
2016,06,04,03,49,16.80
2016,06,04,03,50,16.80
2016,06,04,03,51,16.80
2016,06,04,03,52,16.70
2016,06,04,03,53,16.70
2016,06,04,03,54,16.70
2016,06,04,03,55,16.70
2016,06,04,03,56,16.70
2016,06,04,03,57,16.70
2016,06,04,03,58,16.60
2016,06,04,03,59,16.60
2016,06,04,04,00,16.60
2016,06,04,04,01,16.60
2016,06,04,04,02,16.60
2016,06,04,04,03,16.50
2016,06,04,04,04,16.50
2016,06,04,04,05,16.50
2016,06,04,04,06,16.40
2016,06,04,04,07,16.40
2016,06,04,04,08,16.40
2016,06,04,04,09,16.40
2016,06,04,04,10,16.40
2016,06,04,04,11,16.40
2016,06,04,04,12,16.40
2016,06,04,04,13,16.30
2016,06,04,04,14,16.30
2016,06,04,04,15,16.30
2016,06,04,04,16,16.30
2016,06,04,04,17,16.30
2016,06,04,04,18,16.30
2016,06,04,04,19,16.30
2016,06,04,04,20,16.30
2016,06,04,04,21,16.30
2016,06,04,04,22,16.30
2016,06,04,04,23,16.20
2016,06,04,04,24,16.20
2016,06,04,04,25,16.20
2016,06,04,04,26,16.20
2016,06,04,04,27,16.20
2016,06,04,04,28,16.20
2016,06,04,04,29,16.20
2016,06,04,04,30,16.20
2016,06,04,04,31,16.20
2016,06,04,04,32,16.20
2016,06,04,04,33,16.20
2016,06,04,04,34,16.20
2016,06,04,04,35,16.20
2016,06,04,04,36,16.20
2016,06,04,04,37,16.20
2016,06,04,04,38,16.20
2016,06,04,04,39,16.20
2016,06,04,04,40,16.20
2016,06,04,04,41,16.20
2016,06,04,04,42,16.10
2016,06,04,04,43,16.10
2016,06,04,04,44,16.10
2016,06,04,04,45,16.10
2016,06,04,04,46,16.10
2016,06,04,04,47,16.10
2016,06,04,04,48,16.10
2016,06,04,04,49,16.10
2016,06,04,04,50,16.10
2016,06,04,04,51,16.00
2016,06,04,04,52,16.00
2016,06,04,04,53,16.00
2016,06,04,04,54,16.00
2016,06,04,04,55,16.00
2016,06,04,04,56,16.00
2016,06,04,04,57,15.90
2016,06,04,04,58,15.90
2016,06,04,04,59,15.90
2016,06,04,05,00,15.90
2016,06,04,05,01,15.90
2016,06,04,05,02,15.90
2016,06,04,05,03,15.90
2016,06,04,05,04,15.90
2016,06,04,05,05,15.90
2016,06,04,05,06,15.80
2016,06,04,05,07,15.80
2016,06,04,05,08,15.80
2016,06,04,05,09,15.80
2016,06,04,05,10,15.80
2016,06,04,05,11,15.80
2016,06,04,05,12,15.70
2016,06,04,05,13,15.70
2016,06,04,05,14,15.70
2016,06,04,05,15,15.70
2016,06,04,05,16,15.70
2016,06,04,05,17,15.70
2016,06,04,05,18,15.70
2016,06,04,05,19,15.70
2016,06,04,05,20,15.70
2016,06,04,05,21,15.70
2016,06,04,05,22,15.70
2016,06,04,05,23,15.70
2016,06,04,05,24,15.70
2016,06,04,05,25,15.70
2016,06,04,05,26,15.70
2016,06,04,05,27,15.70
2016,06,04,05,28,15.70
2016,06,04,05,29,15.70
2016,06,04,05,30,15.70
2016,06,04,05,31,15.70
2016,06,04,05,32,15.70
2016,06,04,05,33,15.70
2016,06,04,05,34,15.70
2016,06,04,05,35,15.70
2016,06,04,05,36,15.70
2016,06,04,05,37,15.70
2016,06,04,05,38,15.70
2016,06,04,05,39,15.70
2016,06,04,05,40,15.70
2016,06,04,05,41,15.80
2016,06,04,05,42,15.70
2016,06,04,05,43,15.80
2016,06,04,05,44,15.80
2016,06,04,05,45,15.80
2016,06,04,05,46,15.80
2016,06,04,05,47,15.80
2016,06,04,05,48,15.70
2016,06,04,05,49,15.80
2016,06,04,05,50,15.70
2016,06,04,05,51,15.70
2016,06,04,05,52,15.70
2016,06,04,05,53,15.70
2016,06,04,05,54,15.70
2016,06,04,05,55,15.70
2016,06,04,05,56,15.80
2016,06,04,05,57,15.80
2016,06,04,05,58,15.80
2016,06,04,05,59,15.80
2016,06,04,06,00,15.80
2016,06,04,06,01,15.80
2016,06,04,06,02,15.80
2016,06,04,06,03,15.80
2016,06,04,06,04,15.80
2016,06,04,06,05,15.80
2016,06,04,06,06,15.80
2016,06,04,06,07,15.80
2016,06,04,06,08,15.80
2016,06,04,06,09,15.80
2016,06,04,06,10,15.80
2016,06,04,06,11,15.80
2016,06,04,06,12,15.80
2016,06,04,06,13,15.80
2016,06,04,06,14,15.90
2016,06,04,06,15,15.90
2016,06,04,06,16,15.90
2016,06,04,06,17,15.90
2016,06,04,06,18,15.90
2016,06,04,06,19,15.90
2016,06,04,06,20,15.90
2016,06,04,06,21,15.90
2016,06,04,06,22,15.90
2016,06,04,06,23,15.90
2016,06,04,06,24,15.90
2016,06,04,06,25,15.90
2016,06,04,06,26,15.90
2016,06,04,06,27,15.90
2016,06,04,06,28,15.90
2016,06,04,06,29,16.00
2016,06,04,06,30,16.00
2016,06,04,06,31,16.00
2016,06,04,06,32,16.00
2016,06,04,06,33,16.00
2016,06,04,06,34,16.10
2016,06,04,06,35,16.10
2016,06,04,06,36,16.10
2016,06,04,06,37,16.10
2016,06,04,06,38,16.10
2016,06,04,06,39,16.20
2016,06,04,06,40,16.20
2016,06,04,06,41,16.20
2016,06,04,06,42,16.20
2016,06,04,06,43,16.30
2016,06,04,06,44,16.30
2016,06,04,06,45,16.30
2016,06,04,06,46,16.40
2016,06,04,06,47,16.40
2016,06,04,06,48,16.40
2016,06,04,06,49,16.40
2016,06,04,06,50,16.50
2016,06,04,06,51,16.50
2016,06,04,06,52,16.60
2016,06,04,06,53,16.60
2016,06,04,06,54,16.60
2016,06,04,06,55,16.60
2016,06,04,06,56,16.70
2016,06,04,06,57,16.70
2016,06,04,06,58,16.70
2016,06,04,06,59,16.70
2016,06,04,07,00,16.70
2016,06,04,07,01,16.80
2016,06,04,07,02,16.80
2016,06,04,07,03,16.80
2016,06,04,07,04,16.80
2016,06,04,07,05,16.90
2016,06,04,07,06,16.90
2016,06,04,07,07,16.90
2016,06,04,07,08,16.90
2016,06,04,07,09,17.00
2016,06,04,07,10,17.00
2016,06,04,07,11,17.00
2016,06,04,07,12,17.10
2016,06,04,07,13,17.10
2016,06,04,07,14,17.10
2016,06,04,07,15,17.10
2016,06,04,07,16,17.20
2016,06,04,07,17,17.20
2016,06,04,07,18,17.20
2016,06,04,07,19,17.20
2016,06,04,07,20,17.30
2016,06,04,07,21,17.30
2016,06,04,07,22,17.30
2016,06,04,07,23,17.40
2016,06,04,07,24,17.40
2016,06,04,07,25,17.50
2016,06,04,07,26,17.50
2016,06,04,07,27,17.60
2016,06,04,07,28,17.60
2016,06,04,07,29,17.60
2016,06,04,07,30,17.60
2016,06,04,07,31,17.70
2016,06,04,07,32,17.70
2016,06,04,07,33,17.70
2016,06,04,07,34,17.70
2016,06,04,07,35,17.80
2016,06,04,07,36,17.80
2016,06,04,07,37,17.80
2016,06,04,07,38,17.80
2016,06,04,07,39,17.90
2016,06,04,07,40,17.90
2016,06,04,07,41,17.90
2016,06,04,07,42,18.00
2016,06,04,07,43,18.00
2016,06,04,07,44,18.10
2016,06,04,07,45,18.10
2016,06,04,07,46,18.10
2016,06,04,07,47,18.10
2016,06,04,07,48,18.20
2016,06,04,07,49,18.20
2016,06,04,07,50,18.20
2016,06,04,07,51,18.30
2016,06,04,07,52,18.30
2016,06,04,07,53,18.30
2016,06,04,07,54,18.40
2016,06,04,07,55,18.40
2016,06,04,07,56,18.40
2016,06,04,07,57,18.50
2016,06,04,07,58,18.50
2016,06,04,07,59,18.60
2016,06,04,08,00,18.60
2016,06,04,08,01,18.60
2016,06,04,08,02,18.70
2016,06,04,08,03,18.70
2016,06,04,08,04,18.70
2016,06,04,08,05,18.80
2016,06,04,08,06,18.80
2016,06,04,08,07,18.80
2016,06,04,08,08,18.80
2016,06,04,08,09,18.90
2016,06,04,08,10,18.90
2016,06,04,08,11,18.90
2016,06,04,08,12,18.90
2016,06,04,08,13,18.90
2016,06,04,08,14,18.90
2016,06,04,08,15,19.00
2016,06,04,08,16,19.00
2016,06,04,08,17,19.00
2016,06,04,08,18,19.10
2016,06,04,08,19,19.10
2016,06,04,08,20,19.10
2016,06,04,08,21,19.10
2016,06,04,08,22,19.20
2016,06,04,08,23,19.20
2016,06,04,08,24,19.20
2016,06,04,08,25,19.20
2016,06,04,08,26,19.20
2016,06,04,08,27,19.30
2016,06,04,08,28,19.30
2016,06,04,08,29,19.30
2016,06,04,08,30,19.40
2016,06,04,08,31,19.40
2016,06,04,08,32,19.40
2016,06,04,08,33,19.50
2016,06,04,08,34,19.50
2016,06,04,08,35,19.60
2016,06,04,08,36,19.60
2016,06,04,08,37,19.60
2016,06,04,08,38,19.60
2016,06,04,08,39,19.70
2016,06,04,08,40,19.70
2016,06,04,08,41,19.70
2016,06,04,08,42,19.70
2016,06,04,08,43,19.70
2016,06,04,08,44,19.80
2016,06,04,08,45,19.80
2016,06,04,08,46,19.80
2016,06,04,08,47,19.80
2016,06,04,08,48,19.80
2016,06,04,08,49,19.80
2016,06,04,08,50,19.90
2016,06,04,08,51,19.90
2016,06,04,08,52,19.90
2016,06,04,08,53,19.90
2016,06,04,08,54,20.00
2016,06,04,08,55,20.00
2016,06,04,08,56,20.10
2016,06,04,08,57,20.10
2016,06,04,08,58,20.20
2016,06,04,08,59,20.20
2016,06,04,09,00,20.20
2016,06,04,09,01,20.20
2016,06,04,09,02,20.30
2016,06,04,09,03,20.30
2016,06,04,09,04,20.30
2016,06,04,09,05,20.30
2016,06,04,09,06,20.30
2016,06,04,09,07,20.30
2016,06,04,09,08,20.30
2016,06,04,09,09,20.30
2016,06,04,09,10,20.30
2016,06,04,09,11,20.40
2016,06,04,09,12,20.40
2016,06,04,09,13,20.40
2016,06,04,09,14,20.40
2016,06,04,09,15,20.40
2016,06,04,09,16,20.40
2016,06,04,09,17,20.40
2016,06,04,09,18,20.40
2016,06,04,09,19,20.50
2016,06,04,09,20,20.50
2016,06,04,09,21,20.50
2016,06,04,09,22,20.50
2016,06,04,09,23,20.50
2016,06,04,09,24,20.60
2016,06,04,09,25,20.60
2016,06,04,09,26,20.70
2016,06,04,09,27,20.70
2016,06,04,09,28,20.70
2016,06,04,09,29,20.70
2016,06,04,09,30,20.70
2016,06,04,09,31,20.70
2016,06,04,09,32,20.70
2016,06,04,09,33,20.80
2016,06,04,09,34,20.80
2016,06,04,09,35,20.80
2016,06,04,09,36,20.80
2016,06,04,09,37,20.80
2016,06,04,09,38,20.80
2016,06,04,09,39,20.90
2016,06,04,09,40,20.90
2016,06,04,09,41,20.90
2016,06,04,09,42,20.90
2016,06,04,09,43,20.90
2016,06,04,09,44,20.90
2016,06,04,09,45,20.90
2016,06,04,09,46,20.90
2016,06,04,09,47,20.90
2016,06,04,09,48,20.90
2016,06,04,09,49,20.90
2016,06,04,09,50,20.90
2016,06,04,09,51,21.00
2016,06,04,09,52,21.00
2016,06,04,09,53,21.00
2016,06,04,09,54,21.00
2016,06,04,09,55,21.00
2016,06,04,09,56,21.00
2016,06,04,09,57,21.10
2016,06,04,09,58,21.10
2016,06,04,09,59,21.10
2016,06,04,10,00,21.10
2016,06,04,10,01,21.20
2016,06,04,10,02,21.20
2016,06,04,10,03,21.30
2016,06,04,10,04,21.30
2016,06,04,10,05,21.30
2016,06,04,10,06,21.30
2016,06,04,10,07,21.30
2016,06,04,10,08,21.30
2016,06,04,10,09,21.30
2016,06,04,10,10,21.30
2016,06,04,10,11,21.30
2016,06,04,10,12,21.30
2016,06,04,10,13,21.30
2016,06,04,10,14,21.30
2016,06,04,10,15,21.30
2016,06,04,10,16,21.40
2016,06,04,10,17,21.40
2016,06,04,10,18,21.40
2016,06,04,10,19,21.50
2016,06,04,10,20,21.50
2016,06,04,10,21,21.60
2016,06,04,10,22,21.60
2016,06,04,10,23,21.60
2016,06,04,10,24,21.70
2016,06,04,10,25,21.70
2016,06,04,10,26,21.70
2016,06,04,10,27,21.70
2016,06,04,10,28,21.80
2016,06,04,10,29,21.70
2016,06,04,10,30,21.70
2016,06,04,10,31,21.70
2016,06,04,10,32,21.70
2016,06,04,10,33,21.70
2016,06,04,10,34,21.70
2016,06,04,10,35,21.70
2016,06,04,10,36,21.70
2016,06,04,10,37,21.70
2016,06,04,10,38,21.70
2016,06,04,10,39,21.70
2016,06,04,10,40,21.80
2016,06,04,10,41,21.90
2016,06,04,10,42,21.90
2016,06,04,10,43,21.90
2016,06,04,10,44,22.00
2016,06,04,10,45,22.00
2016,06,04,10,46,22.10
2016,06,04,10,47,22.10
2016,06,04,10,48,22.10
2016,06,04,10,49,22.20
2016,06,04,10,50,22.20
2016,06,04,10,51,22.30
2016,06,04,10,52,22.30
2016,06,04,10,53,22.30
2016,06,04,10,54,22.30
2016,06,04,10,55,22.30
2016,06,04,10,56,22.30
2016,06,04,10,57,22.30
2016,06,04,10,58,22.30
2016,06,04,10,59,22.30
2016,06,04,11,00,22.30
2016,06,04,11,01,22.40
2016,06,04,11,02,22.40
2016,06,04,11,03,22.40
2016,06,04,11,04,22.40
2016,06,04,11,05,22.50
2016,06,04,11,06,22.60
2016,06,04,11,07,22.70
2016,06,04,11,08,22.70
2016,06,04,11,09,22.70
2016,06,04,11,10,22.70
2016,06,04,11,11,22.70
2016,06,04,11,12,22.70
2016,06,04,11,13,22.80
2016,06,04,11,14,22.90
2016,06,04,11,15,22.90
2016,06,04,11,16,22.80
2016,06,04,11,17,22.90
2016,06,04,11,18,22.90
2016,06,04,11,19,22.90
2016,06,04,11,20,23.00
2016,06,04,11,21,23.10
2016,06,04,11,22,23.10
2016,06,04,11,23,23.20
2016,06,04,11,24,23.10
2016,06,04,11,25,23.10
2016,06,04,11,26,23.10
2016,06,04,11,27,23.20
2016,06,04,11,28,23.20
2016,06,04,11,29,23.20
2016,06,04,11,30,23.10
2016,06,04,11,31,23.10
2016,06,04,11,32,23.10
2016,06,04,11,33,23.20
2016,06,04,11,34,23.30
2016,06,04,11,35,23.30
2016,06,04,11,36,23.30
2016,06,04,11,37,23.30
2016,06,04,11,38,23.30
2016,06,04,11,39,23.40
2016,06,04,11,40,23.50
2016,06,04,11,41,23.60
2016,06,04,11,42,23.60
2016,06,04,11,43,23.70
2016,06,04,11,44,23.70
2016,06,04,11,45,23.70
2016,06,04,11,46,23.60
2016,06,04,11,47,23.60
2016,06,04,11,48,23.60
2016,06,04,11,49,23.60
2016,06,04,11,50,23.60
2016,06,04,11,51,23.70
2016,06,04,11,52,23.70
2016,06,04,11,53,23.80
2016,06,04,11,54,23.80
2016,06,04,11,55,23.90
2016,06,04,11,56,23.90
2016,06,04,11,57,23.90
2016,06,04,11,58,24.00
2016,06,04,11,59,24.10
2016,06,04,12,00,24.10
2016,06,04,12,01,24.10
2016,06,04,12,02,24.20
2016,06,04,12,03,24.20
2016,06,04,12,04,24.30
2016,06,04,12,05,24.30
2016,06,04,12,06,24.20
2016,06,04,12,07,24.30
2016,06,04,12,08,24.30
2016,06,04,12,09,24.40
2016,06,04,12,10,24.40
2016,06,04,12,11,24.40
2016,06,04,12,12,24.40
2016,06,04,12,13,24.40
2016,06,04,12,14,24.40
2016,06,04,12,15,24.40
2016,06,04,12,16,24.40
2016,06,04,12,17,24.50
2016,06,04,12,18,24.60
2016,06,04,12,19,24.60
2016,06,04,12,20,24.70
2016,06,04,12,21,24.80
2016,06,04,12,22,24.80
2016,06,04,12,23,24.90
2016,06,04,12,24,25.00
2016,06,04,12,25,25.00
2016,06,04,12,26,25.00
2016,06,04,12,27,25.00
2016,06,04,12,28,25.00
2016,06,04,12,29,25.00
2016,06,04,12,30,25.10
2016,06,04,12,31,25.20
2016,06,04,12,32,25.30
2016,06,04,12,33,25.40
2016,06,04,12,34,25.50
2016,06,04,12,35,25.60
2016,06,04,12,36,25.60
2016,06,04,12,37,25.60
2016,06,04,12,38,25.70
2016,06,04,12,39,25.80
2016,06,04,12,40,25.90
2016,06,04,12,41,25.90
2016,06,04,12,42,25.90
2016,06,04,12,43,25.90
2016,06,04,12,44,25.80
2016,06,04,12,45,25.70
2016,06,04,12,46,25.70
2016,06,04,12,47,25.80
2016,06,04,12,48,25.80
2016,06,04,12,49,25.90
2016,06,04,12,50,25.80
2016,06,04,12,51,25.80
2016,06,04,12,52,25.70
2016,06,04,12,53,25.70
2016,06,04,12,54,25.80
2016,06,04,12,55,25.70
2016,06,04,12,56,25.60
2016,06,04,12,57,25.60
2016,06,04,12,58,25.50
2016,06,04,12,59,25.50
2016,06,04,13,00,25.40
2016,06,04,13,01,25.50
2016,06,04,13,02,25.60
2016,06,04,13,03,25.70
2016,06,04,13,04,25.80
2016,06,04,13,05,25.80
2016,06,04,13,06,25.90
2016,06,04,13,07,25.90
2016,06,04,13,08,26.00
2016,06,04,13,09,26.00
2016,06,04,13,10,26.00
2016,06,04,13,11,26.00
2016,06,04,13,12,26.10
2016,06,04,13,13,26.20
2016,06,04,13,14,26.20
2016,06,04,13,15,26.20
2016,06,04,13,16,26.10
2016,06,04,13,17,26.10
2016,06,04,13,18,26.10
2016,06,04,13,19,26.00
2016,06,04,13,20,26.00
2016,06,04,13,21,26.00
2016,06,04,13,22,26.10
2016,06,04,13,23,26.20
2016,06,04,13,24,26.30
2016,06,04,13,25,26.30
2016,06,04,13,26,26.20
2016,06,04,13,27,26.20
2016,06,04,13,28,26.30
2016,06,04,13,29,26.50
2016,06,04,13,30,26.60
2016,06,04,13,31,26.60
2016,06,04,13,32,26.60
2016,06,04,13,33,26.70
2016,06,04,13,34,26.80
2016,06,04,13,35,26.90
2016,06,04,13,36,26.90
2016,06,04,13,37,26.90
2016,06,04,13,38,26.90
2016,06,04,13,39,27.00
2016,06,04,13,40,27.00
2016,06,04,13,41,26.90
2016,06,04,13,42,26.90
2016,06,04,13,43,26.80
2016,06,04,13,44,26.70
2016,06,04,13,45,26.70
2016,06,04,13,46,26.70
2016,06,04,13,47,26.70
2016,06,04,13,48,26.80
2016,06,04,13,49,26.80
2016,06,04,13,50,26.80
2016,06,04,13,51,26.80
2016,06,04,13,52,26.70
2016,06,04,13,53,26.70
2016,06,04,13,54,26.80
2016,06,04,13,55,26.90
2016,06,04,13,56,26.80
2016,06,04,13,57,26.80
2016,06,04,13,58,26.80
2016,06,04,13,59,26.80
2016,06,04,14,00,26.90
2016,06,04,14,01,26.90
2016,06,04,14,02,27.00
2016,06,04,14,03,27.20
2016,06,04,14,04,27.30
2016,06,04,14,05,27.30
2016,06,04,14,06,27.20
2016,06,04,14,07,27.30
2016,06,04,14,08,27.40
2016,06,04,14,09,27.60
2016,06,04,14,10,27.70
2016,06,04,14,11,27.80
2016,06,04,14,12,27.80
2016,06,04,14,13,27.80
2016,06,04,14,14,27.80
2016,06,04,14,15,27.90
2016,06,04,14,16,28.00
2016,06,04,14,17,28.10
2016,06,04,14,18,28.10
2016,06,04,14,19,28.10
2016,06,04,14,20,28.10
2016,06,04,14,21,28.10
2016,06,04,14,22,28.20
2016,06,04,14,23,28.10
2016,06,04,14,24,28.00
2016,06,04,14,25,28.00
2016,06,04,14,26,27.90
2016,06,04,14,27,27.80
2016,06,04,14,28,27.70
2016,06,04,14,29,27.60
2016,06,04,14,30,27.60
2016,06,04,14,31,27.60
2016,06,04,14,32,27.60
2016,06,04,14,33,27.80
2016,06,04,14,34,28.00
2016,06,04,14,35,28.20
2016,06,04,14,36,28.50
2016,06,04,14,37,28.70
2016,06,04,14,38,29.00
2016,06,04,14,39,29.10
2016,06,04,14,40,29.10
2016,06,04,14,41,29.10
2016,06,04,14,42,29.20
2016,06,04,14,43,29.10
2016,06,04,14,44,29.00
2016,06,04,14,45,28.90
2016,06,04,14,46,28.80
2016,06,04,14,47,28.80
2016,06,04,14,48,28.80
2016,06,04,14,49,28.80
2016,06,04,14,50,28.70
2016,06,04,14,51,28.80
2016,06,04,14,52,28.80
2016,06,04,14,53,28.80
2016,06,04,14,54,28.80
2016,06,04,14,55,28.80
2016,06,04,14,56,28.80
2016,06,04,14,57,28.80
2016,06,04,14,58,28.90
2016,06,04,14,59,28.90
2016,06,04,15,00,28.80
2016,06,04,15,01,28.70
2016,06,04,15,02,28.70
2016,06,04,15,03,28.80
2016,06,04,15,04,28.70
2016,06,04,15,05,28.60
2016,06,04,15,06,28.50
2016,06,04,15,07,28.70
2016,06,04,15,08,28.70
2016,06,04,15,09,28.60
2016,06,04,15,10,28.60
2016,06,04,15,11,28.70
2016,06,04,15,12,29.00
2016,06,04,15,13,29.20
2016,06,04,15,14,29.40
2016,06,04,15,15,29.40
2016,06,04,15,16,29.40
2016,06,04,15,17,29.30
2016,06,04,15,18,29.30
2016,06,04,15,19,29.20
2016,06,04,15,20,29.10
2016,06,04,15,21,29.10
2016,06,04,15,22,29.10
2016,06,04,15,23,29.20
2016,06,04,15,24,29.40
2016,06,04,15,25,29.50
2016,06,04,15,26,29.50
2016,06,04,15,27,29.30
2016,06,04,15,28,29.20
2016,06,04,15,29,29.20
2016,06,04,15,30,29.30
2016,06,04,15,31,29.30
2016,06,04,15,32,29.20
2016,06,04,15,33,29.20
2016,06,04,15,34,29.10
2016,06,04,15,35,29.10
2016,06,04,15,36,29.10
2016,06,04,15,37,29.10
2016,06,04,15,38,29.00
2016,06,04,15,39,29.00
2016,06,04,15,40,29.00
2016,06,04,15,41,29.10
2016,06,04,15,42,29.10
2016,06,04,15,43,29.20
2016,06,04,15,44,29.20
2016,06,04,15,45,29.50
2016,06,04,15,46,29.70
2016,06,04,15,47,30.00
2016,06,04,15,48,30.10
2016,06,04,15,49,30.10
2016,06,04,15,50,30.10
2016,06,04,15,51,30.00
2016,06,04,15,52,29.90
2016,06,04,15,53,29.80
2016,06,04,15,54,29.80
2016,06,04,15,55,29.90
2016,06,04,15,56,30.00
2016,06,04,15,57,30.10
2016,06,04,15,58,30.20
2016,06,04,15,59,30.40
2016,06,04,16,00,30.60
2016,06,04,16,01,30.90
2016,06,04,16,02,31.10
2016,06,04,16,03,31.20
2016,06,04,16,04,31.30
2016,06,04,16,05,31.30
2016,06,04,16,06,31.30
2016,06,04,16,07,31.30
2016,06,04,16,08,31.20
2016,06,04,16,09,31.10
2016,06,04,16,10,31.10
2016,06,04,16,11,31.10
2016,06,04,16,12,31.00
2016,06,04,16,13,31.00
2016,06,04,16,14,30.90
2016,06,04,16,15,30.70
2016,06,04,16,16,30.60
2016,06,04,16,17,30.50
2016,06,04,16,18,30.40
2016,06,04,16,19,30.30
2016,06,04,16,20,30.20
2016,06,04,16,21,30.10
2016,06,04,16,22,30.00
2016,06,04,16,23,30.00
2016,06,04,16,24,30.10
2016,06,04,16,25,30.10
2016,06,04,16,26,30.20
2016,06,04,16,27,30.30
2016,06,04,16,28,30.20
2016,06,04,16,29,30.10
2016,06,04,16,30,30.10
2016,06,04,16,31,30.20
2016,06,04,16,32,30.40
2016,06,04,16,33,30.60
2016,06,04,16,34,30.70
2016,06,04,16,35,30.80
2016,06,04,16,36,30.80
2016,06,04,16,37,30.90
2016,06,04,16,38,31.00
2016,06,04,16,39,31.00
2016,06,04,16,40,31.00
2016,06,04,16,41,30.80
2016,06,04,16,42,30.60
2016,06,04,16,43,30.50
2016,06,04,16,44,30.40
2016,06,04,16,45,30.40
2016,06,04,16,46,30.40
2016,06,04,16,47,30.50
2016,06,04,16,48,30.50
2016,06,04,16,49,30.60
2016,06,04,16,50,30.60
2016,06,04,16,51,30.50
2016,06,04,16,52,30.40
2016,06,04,16,53,30.30
2016,06,04,16,54,30.20
2016,06,04,16,55,30.20
2016,06,04,16,56,30.20
2016,06,04,16,57,30.20
2016,06,04,16,58,30.30
2016,06,04,16,59,30.30
2016,06,04,17,00,30.40
2016,06,04,17,01,30.60
2016,06,04,17,02,30.70
2016,06,04,17,03,30.70
2016,06,04,17,04,30.70
2016,06,04,17,05,30.60
2016,06,04,17,06,30.50
2016,06,04,17,07,30.50
2016,06,04,17,08,30.50
2016,06,04,17,09,30.50
2016,06,04,17,10,30.50
2016,06,04,17,11,30.50
2016,06,04,17,12,30.50
2016,06,04,17,13,30.50
2016,06,04,17,14,30.60
2016,06,04,17,15,30.70
2016,06,04,17,16,30.60
2016,06,04,17,17,30.50
2016,06,04,17,18,30.50
2016,06,04,17,19,30.50